Tracking 34401 objects as of 17-Jun-2026
HD Live streaming from Space Station
objects crossing your sky now

DELTA 1 DEB

Track DELTA 1 DEB now!
10-day predictions


NORAD ID: 7020
Int'l Code: 1973-086L
Perigee: 1,494.0 km
Apogee: 1,749.7 km
Inclination: 102.2 °
Period: 118.5 minutes
Semi major axis: 7992 km
RCS: 0.2266 m2 (medium)
Launch date: November 6, 1973
Source: United States (US)
Launch site: AIR FORCE WESTERN TEST RANGE (AFWTR)

Note: This is SATELLITE DEBRIS
Your satellite tracking list
Your tracking list is empty




NASA's NSSDC Master Catalog

Two Line Element Set (TLE):
1  7020U 73086L   26167.77816917 -.00000111  00000-0 -68515-3 0  9994
2  7020 102.1937 237.2525 0160005  67.6304  46.2209 12.14928754331618
Source of the keplerian elements: AFSPC